RH
49 50 50 50 52 55 56 56 57 57 57 62 70 74 75 75 75 75 77 76 74 75 75 74 74 78 83 84 82 81 81 85 91 97 100 100 100 100 99 97 96 93
46 46 46 46 48 53 59 61 61 59 56 61 72 79 81 80 80 81 80 79 76 75 74 75 77 80 85 88 87 85 81 80 83 88 97 101 99 100 100 99 98 98
45 44 43 43 47 57 66 65 62 59 59 66 74 82 87 87 85 84 82 81 78 73 71 74 76 77 80 85 88 87 82 81 79 79 89 97 100 100 99 100 100 99
43 42 42 44 54 64 65 60 59 61 63 71 75 78 83 85 86 86 83 80 77 72 68 68 69 71 74 80 87 89 87 86 83 81 86 93 99 101 99 100 101 100
42 41 44 53 61 61 55 53 64 70 70 73 75 75 77 78 80 83 81 79 76 71 68 67 68 71 73 77 84 91 90 87 85 84 88 90 94 99 100 100 100 100
42 43 53 60 57 50 47 52 67 75 74 78 79 78 78 77 81 85 83 81 78 73 69 67 68 71 74 76 82 89 93 92 85 81 86 89 90 95 99 100 100 100
43 51 60 57 49 46 44 49 65 75 76 82 88 87 83 81 85 90 89 86 82 78 74 71 71 74 76 78 81 85 91 96 90 81 81 84 86 93 98 100 100 100
48 58 59 51 46 45 42 50 68 77 75 79 86 90 88 84 83 87 91 91 84 79 76 75 76 76 75 76 79 81 86 92 92 87 86 85 85 92 97 99 100 100
52 58 52 46 46 45 47 59 70 69 66 70 77 82 85 84 82 82 85 87 85 79 74 73 72 70 72 74 74 76 79 86 91 91 91 89 86 88 93 98 100 100
53 53 48 48 51 53 57 61 59 55 57 66 74 78 78 78 77 77 78 81 88 87 81 78 75 70 73 75 72 75 78 83 91 94 92 89 84 80 83 91 98 99
51 50 49 50 50 52 56 54 50 49 56 67 75 78 78 77 76 72 69 71 79 82 78 76 76 74 74 73 72 75 79 83 89 93 94 93 87 80 76 78 86 91
50 49 47 46 44 44 47 48 44 45 57 71 77 76 79 83 84 81 76 73 72 71 68 65 66 68 69 69 70 73 75 80 84 87 90 93 91 85 79 75 76 79
49 48 45 44 45 46 47 46 43 49 65 75 75 76 81 83 85 85 85 84 81 77 72 66 63 63 64 66 71 73 72 73 76 80 86 94 94 89 83 75 72 75
44 45 45 46 50 55 55 52 54 63 72 72 71 77 81 79 77 78 80 83 85 83 78 73 69 65 64 66 72 77 75 73 74 75 78 88 94 94 89 78 72 77
45 46 47 51 57 62 63 62 66 70 71 71 74 77 77 75 74 77 80 83 84 81 78 80 82 77 72 72 77 81 81 79 80 78 76 79 83 88 92 88 81 80
47 48 50 55 60 65 67 68 69 70 71 75 78 78 78 78 79 82 87 89 89 89 87 90 93 87 80 79 81 84 84 82 83 84 82 79 76 78 87 92 91 86
48 51 54 59 64 67 70 71 71 73 76 78 80 82 82 83 85 89 91 91 91 93 93 95 96 94 90 86 85 88 88 85 84 84 83 81 79 81 84 89 92 90
51 56 60 64 69 71 72 73 74 77 80 81 83 85 86 87 90 93 94 94 94 94 96 98 97 97 96 91 89 90 91 91 90 87 85 85 86 89 89 88 88 88
58 62 65 68 71 73 73 75 77 81 83 86 88 90 92 93 94 95 95 97 98 98 99 100 99 98 97 94 93 92 91 93 94 93 93 93 94 96 96 94 90 87
63 66 69 72 74 76 77 79 81 84 87 90 92 94 97 97 97 98 97 97 97 98 99 100 99 99 98 95 93 93 93 94 95 96 99 99 99 99 99 99 96 91
69 72 74 77 79 80 81 83 86 89 91 93 95 96 97 99 100 100 99 98 98 98 99 99 96 93 94 94 95 94 93 94 95 97 99 100 100 101 100 99 98 95
74 77 79 81 83 84 87 88 90 92 94 95 97 98 98 99 100 100 100 100 100 99 100 99 93 87 86 88 90 89 87 89 92 94 96 98 99 100 100 99 98 97
80 82 84 86 88 90 92 93 93 95 96 97 99 100 99 99 100 100 100 100 100 100 100 98 93 88 85 85 85 85 85 88 91 93 95 97 97 96 97 97 97 97
85 85 87 91 94 95 95 96 97 98 98 98 100 101 100 100 100 100 100 100 100 100 99 99 96 90 88 88 87 86 87 89 93 97 97 97 97 95 95 95 95 95
88 89 92 94 97 98 98 99 100 100 99 99 101 101 100 99 99 100 100 99 99 99 98 99 98 93 92 94 94 94 94 94 96 100 99 98 98 97 97 98 97 95
91 94 98 99 99 100 101 100 99 100 100 100 100 101 100 100 100 100 101 99 99 100 99 99 100 99 96 92 90 92 95 95 95 97 98 99 99 99 99 100 99 98
Wind_Speed
30 31 32 34 36 35 35 35 34 34 33 30 28 28 29 30 32 32 32 32 32 31 31 30 29 30 32 33 33 32 31 29 26 25 26 27 28 30 30 30 29 28
33 35 38 39 39 37 35 34 35 36 34 31 30 31 31 32 32 32 32 32 31 29 28 27 26 27 29 31 33 33 32 31 29 27 26 26 27 29 30 31 31 31
36 40 42 43 41 36 33 33 35 37 36 32 31 31 31 31 32 32 32 32 31 29 27 26 26 26 26 28 32 32 31 30 29 28 27 26 27 28 29 30 31 31
38 44 45 42 35 30 31 35 37 37 35 32 31 31 30 31 31 32 33 32 31 28 26 26 26 25 24 24 26 29 30 29 26 24 25 26 26 27 28 29 29 30
41 47 44 34 27 29 34 38 37 35 34 33 32 31 30 30 31 30 30 30 30 30 28 25 25 23 22 21 23 26 29 28 24 22 23 24 25 26 27 27 27 28
43 44 35 27 28 34 38 39 37 35 34 32 31 30 30 30 30 30 30 31 31 31 29 27 26 24 22 21 21 23 27 27 25 23 23 23 24 25 25 26 26 27
42 36 28 29 35 39 40 39 36 34 32 30 29 30 30 29 28 29 31 31 29 28 27 27 26 24 22 21 21 22 24 27 28 26 24 24 24 24 25 25 26 26
39 31 28 34 40 42 41 37 32 30 29 29 28 29 29 28 27 27 28 28 27 27 27 26 25 25 24 23 22 22 23 25 28 27 25 25 23 23 24 24 25 26
34 28 33 40 42 40 36 29 27 29 30 30 30 29 27 27 27 27 27 28 28 27 27 27 26 26 26 25 23 23 22 24 27 28 27 27 25 23 22 22 23 24
32 32 37 39 37 33 28 25 28 30 31 31 30 29 27 25 25 26 26 27 27 27 26 26 26 25 26 26 25 23 22 22 25 27 29 28 28 25 22 20 21 22
32 32 32 31 31 31 29 29 32 32 32 31 29 28 27 24 24 23 23 22 22 23 24 24 25 26 26 27 27 26 23 21 22 24 26 27 28 26 23 20 20 22
27 25 28 33 35 33 31 34 36 35 33 30 27 28 27 25 23 22 21 20 20 20 22 23 25 25 26 28 29 28 25 22 20 20 22 25 26 26 24 21 20 23
27 27 32 36 36 33 32 35 37 34 30 27 27 27 26 24 25 25 25 23 22 22 23 24 26 26 27 29 30 30 27 24 22 20 20 22 24 26 25 22 23 26
30 30 32 33 34 34 34 34 32 27 26 27 27 26 26 27 29 29 28 27 26 25 25 26 27 28 28 30 31 30 28 26 25 24 23 22 23 24 25 26 26 27
30 29 30 31 30 30 29 28 26 25 27 29 28 29 31 33 33 31 29 28 27 27 27 28 28 29 29 30 31 30 29 28 27 26 26 25 24 24 24 24 26 27
29 28 28 27 27 26 26 26 26 27 28 29 31 34 35 34 33 31 29 28 26 26 28 28 27 28 29 31 31 30 29 28 28 28 27 27 27 26 24 23 24 26
27 27 27 27 27 27 27 27 27 26 27 29 32 34 33 32 31 31 30 28 26 26 28 28 28 28 29 31 32 31 29 28 27 27 27 26 26 26 25 24 24 25
26 26 27 27 27 27 27 27 27 26 27 29 31 31 30 30 30 29 30 29 27 27 27 27 27 26 26 28 30 30 29 28 28 27 26 26 26 27 27 26 25 25
26 26 26 26 26 27 27 27 26 27 27 28 29 29 27 27 28 29 29 27 26 26 26 25 25 25 25 26 27 28 30 29 28 27 27 27 27 27 28 28 27 26
26 26 26 27 27 27 28 27 28 28 28 28 27 27 26 26 27 28 27 26 26 26 26 25 25 25 24 24 25 26 28 28 26 25 26 27 27 28 27 28 28 27
27 27 27 27 27 28 29 29 29 28 28 28 27 26 25 25 26 26 26 26 25 24 24 23 23 22 21 20 21 21 22 22 23 24 25 26 27 27 27 27 28 27
28 28 27 27 28 29 29 28 28 29 28 27 27 26 25 24 24 24 24 24 23 21 19 19 20 20 19 19 19 19 20 21 23 23 24 25 26 26 26 27 28 29
28 27 27 28 29 29 28 28 28 28 28 26 25 25 25 24 23 23 23 22 22 21 19 19 20 20 19 20 20 21 21 23 23 24 24 25 25 26 27 28 29 30
28 28 29 29 28 27 28 28 27 28 29 28 26 25 26 26 25 25 25 23 21 21 21 21 22 21 19 19 20 22 24 25 25 24 24 25 26 27 28 28 29 30
29 29 28 28 28 28 29 29 29 30 31 30 27 26 28 31 30 27 26 24 21 22 22 22 23 22 21 19 19 20 20 21 21 21 21 22 24 25 26 28 29 30
29 28 27 27 28 29 29 31 32 33 33 33 32 30 30 31 30 28 27 25 23 22 21 21 20 19 16 14 14 14 14 16 17 16 16 18 19 20 22 25 27 30
Wind_Direction
327 325 321 318 313 307 304 302 300 297 292 288 284 283 284 284 283 282 279 277 275 273 272 272 273 274 270 262 254 251 250 250 250 251 252 249 246 242 238 234 232 230
327 324 320 315 310 305 302 302 301 298 293 288 287 287 284 283 283 280 277 276 271 268 270 272 273 274 272 267 258 249 245 247 250 250 251 251 249 245 241 238 235 233
327 323 317 311 306 302 302 305 305 300 293 287 287 288 285 283 283 279 275 272 267 265 268 270 272 273 274 271 261 251 244 245 248 251 253 253 251 247 243 241 237 234
326 322 314 306 303 304 308 309 306 300 293 286 286 287 285 285 284 279 274 269 264 265 270 271 271 271 272 273 265 254 248 246 248 253 255 256 255 249 243 240 237 234
324 320 312 305 306 311 314 310 304 300 295 285 282 285 285 285 284 278 273 270 267 268 268 267 267 266 268 272 267 259 252 247 248 251 252 256 258 253 245 238 234 232
320 315 308 308 313 315 314 308 301 300 298 289 282 284 286 285 282 276 273 273 271 267 264 263 264 263 265 267 265 259 254 250 250 250 248 252 257 256 250 241 233 230
316 308 304 311 314 313 310 304 298 298 302 299 290 286 285 285 283 280 277 273 268 265 265 266 265 263 264 264 261 260 258 254 251 246 243 246 251 253 252 246 237 231
309 303 307 312 311 308 304 299 297 303 309 310 304 294 287 285 285 284 278 271 266 263 263 265 265 265 265 261 258 258 259 255 249 241 237 239 242 246 249 248 242 235
306 307 312 311 307 303 300 298 306 314 316 316 314 308 298 291 288 285 279 273 269 264 259 258 260 262 263 261 259 258 258 256 250 240 234 233 235 239 245 246 244 239
309 311 309 307 306 304 303 309 317 317 315 313 314 315 310 303 296 289 283 276 269 263 259 258 260 262 262 262 261 259 257 257 252 241 233 231 231 234 238 242 245 242
308 309 309 311 315 315 313 315 317 316 313 310 311 313 313 310 306 300 294 286 275 269 265 264 265 265 264 264 262 260 258 256 254 247 239 234 231 229 230 236 244 248
311 317 322 320 318 315 310 308 310 311 309 307 310 312 312 312 311 309 306 301 292 285 278 273 271 268 266 266 263 259 255 252 250 251 248 241 235 229 226 230 242 248
320 324 321 315 310 308 306 305 305 304 305 309 312 312 311 314 315 314 311 307 302 298 292 284 279 273 267 265 260 253 250 247 247 250 251 246 240 234 231 237 245 243
318 316 312 307 304 303 304 304 303 305 311 315 313 311 312 313 313 311 308 304 301 299 296 289 283 276 270 264 256 250 246 246 247 248 248 247 247 244 242 244 243 236
315 313 309 307 305 306 308 309 311 316 319 315 312 311 310 308 306 305 302 298 296 294 293 289 280 273 269 260 251 246 244 242 242 243 244 245 248 251 250 245 238 232
316 313 312 314 317 318 319 319 320 319 316 312 311 309 307 305 303 301 298 294 290 287 287 284 277 270 264 256 248 242 239 239 239 239 240 242 245 248 249 243 237 231
316 316 317 318 319 319 319 319 318 316 311 309 308 306 304 303 301 299 297 293 287 282 280 278 275 268 261 253 247 241 237 236 237 239 240 242 244 244 243 239 234 230
317 317 317 316 317 317 316 315 313 311 308 307 305 304 302 300 297 296 295 291 284 278 273 271 271 267 259 251 245 241 238 235 236 237 239 241 241 241 240 237 233 231
318 317 316 316 316 315 313 312 310 308 306 304 302 299 296 293 293 293 292 288 281 275 271 268 266 263 258 251 246 242 241 239 237 237 238 237 237 237 236 234 231 230
318 316 316 315 314 314 312 310 308 305 302 301 298 296 293 291 291 292 292 288 282 276 272 269 267 263 258 255 252 249 246 244 241 239 238 236 235 234 233 231 229 228
318 316 315 314 314 313 311 309 306 303 302 301 297 294 291 289 289 289 289 289 286 279 270 267 269 267 260 255 255 254 253 251 248 245 243 242 240 237 234 232 230 229
318 316 315 315 313 310 307 306 306 304 302 300 298 294 291 289 288 287 287 289 293 291 282 277 279 274 262 256 256 257 258 256 253 250 246 244 243 240 237 236 235 232
318 316 314 312 309 306 304 304 305 304 303 301 299 297 294 291 289 287 290 293 295 297 296 291 288 282 270 264 262 260 258 254 251 249 245 241 240 239 238 239 239 237
316 315 313 309 305 305 304 303 302 304 306 305 299 293 293 296 295 292 294 296 291 291 294 291 288 288 281 272 267 263 257 252 249 246 242 239 237 236 235 236 238 239
315 312 310 307 306 305 304 305 304 305 307 307 301 296 298 303 304 299 295 296 293 291 293 290 285 285 284 277 273 269 264 260 257 250 243 241 238 234 233 233 234 238
316 313 307 306 307 305 304 307 309 309 311 312 311 308 307 307 306 300 294 290 287 287 291 291 286 284 287 292 292 288 281 277 271 262 253 249 245 240 236 232 230 232